Wind_Speed
41 42 46 47 48 49 51 54 53 53 54 54 54 54 53 53 53 53 53 52 52 51 50 49 49 48 47 46 44 42 41 40 39 38 38 38 36 34 33 31 30 29 29 30 29 28 28 26 25 24 24 23 22 20 18 17 17 17 16 17 17 17 16
35 40 45 46 48 50 52 53 53 53 54 54 55 54 53 54 54 55 54 53 53 51 51 51 50 50 49 47 45 44 44 43 41 39 38 37 37 35 34 32 31 30 29 29 29 28 28 27 26 25 24 23 22 20 18 17 17 17 17 17 17 17 17
35 41 44 47 50 53 54 53 52 53 54 54 54 54 55 55 55 55 55 54 53 52 52 52 51 51 50 49 47 46 45 44 43 42 40 38 37 35 35 34 32 31 29 29 28 29 29 28 27 26 24 23 22 20 19 18 18 18 18 18 18 18 17
36 40 45 49 52 53 53 53 53 54 55 55 55 56 57 57 56 56 55 54 53 52 51 51 51 51 50 50 49 48 47 46 45 44 42 40 38 36 35 35 34 33 31 30 29 29 30 29 28 27 25 24 23 21 20 19 19 19 18 19 19 19 18
35 39 42 45 47 49 50 52 54 55 55 56 55 56 56 57 56 56 55 55 54 53 50 49 49 50 50 50 50 49 48 46 45 44 43 42 40 39 37 36 34 33 33 31 30 30 30 29 29 28 26 25 24 22 21 20 20 20 20 20 20 20 19
36 39 41 43 46 49 51 53 55 56 57 56 56 56 56 55 55 55 56 55 55 54 52 51 51 51 50 50 50 50 49 47 46 45 44 43 42 41 39 37 35 34 33 32 31 31 30 30 29 28 27 26 25 24 23 22 22 22 22 21 21 21 20
39 41 42 44 46 49 52 54 54 56 57 56 55 55 54 53 54 55 55 55 56 55 54 54 53 52 52 51 50 50 50 49 48 46 45 44 44 43 40 38 36 35 34 33 32 31 31 31 30 29 28 27 26 25 24 23 23 23 23 23 22 21 21
43 43 44 46 48 50 51 52 53 54 55 55 53 52 52 52 52 53 54 55 56 56 55 55 55 54 53 52 51 51 50 49 48 47 46 45 44 43 41 39 37 36 35 35 33 32 32 31 30 29 29 28 27 26 25 25 24 24 24 24 24 22 21
43 43 45 46 46 46 47 50 52 52 52 53 52 52 52 51 52 53 54 55 56 56 56 56 55 54 53 53 52 51 50 49 49 48 47 46 46 44 42 39 37 37 37 36 34 33 33 32 31 30 30 29 29 28 27 27 26 26 26 26 25 24 23
38 39 41 40 38 39 42 45 48 48 49 51 51 51 51 52 53 53 54 55 55 56 57 57 56 55 54 54 53 52 51 51 50 50 49 48 47 45 43 40 37 37 38 37 36 34 34 33 33 32 32 31 31 30 29 29 28 27 27 27 27 26 24
35 36 36 36 34 35 37 40 44 47 48 50 51 51 51 52 53 53 54 54 55 56 56 56 56 55 55 55 54 53 52 52 51 51 51 49 47 46 43 40 38 38 38 38 37 36 35 35 34 34 33 33 32 31 30 30 29 28 27 28 28 28 26
31 32 34 36 35 35 37 40 44 47 49 50 52 52 52 53 53 54 54 55 55 56 56 56 56 56 55 55 54 54 54 53 53 52 51 50 48 46 43 41 38 38 39 39 38 37 36 36 36 35 34 34 34 33 32 31 30 29 28 28 28 28 28
24 26 30 34 35 37 37 39 43 47 49 50 51 52 53 53 54 54 54 55 55 55 55 55 55 55 55 55 54 55 54 53 53 52 51 49 47 46 43 40 38 38 39 38 38 37 37 37 37 36 35 35 35 35 34 33 32 30 29 29 29 29 29
19 22 26 29 32 35 37 39 43 46 48 49 50 51 52 53 53 54 54 55 55 54 54 54 54 55 55 55 55 55 54 53 53 52 50 49 48 46 44 40 38 37 38 38 38 38 38 39 38 37 37 37 37 36 36 35 33 31 30 30 30 29 30
20 22 24 27 31 34 37 39 42 45 47 49 49 50 51 51 52 53 53 54 54 54 54 54 54 55 55 55 56 55 54 53 52 52 50 49 48 47 45 41 39 38 37 37 38 38 38 39 39 39 39 39 39 38 38 37 35 33 32 31 31 31 30
22 22 24 26 30 33 36 38 40 44 47 48 49 49 50 51 52 53 53 54 54 54 54 54 54 55 55 56 56 54 53 53 52 52 51 50 49 48 46 43 40 39 38 37 37 38 39 40 40 41 41 41 40 40 40 39 36 34 33 32 31 31 30
21 21 21 23 26 30 33 36 39 42 44 47 48 49 50 51 52 53 53 53 54 54 54 54 54 55 55 56 55 54 53 53 53 52 52 51 50 49 47 44 42 40 39 38 38 39 40 41 41 42 43 42 42 41 41 39 36 34 33 32 32 31 31
20 19 19 20 21 24 29 34 38 41 44 46 48 49 50 50 51 52 52 53 54 54 53 53 54 55 55 55 54 54 54 53 53 53 52 51 50 49 48 46 44 42 40 40 39 40 41 42 43 43 43 43 43 43 42 40 36 35 34 33 32 31 31
21 21 20 20 20 21 24 28 33 38 42 45 47 49 50 50 50 51 51 52 53 52 52 53 54 54 54 54 54 53 53 53 53 53 52 51 51 50 49 48 46 45 43 41 40 41 42 43 44 44 44 44 44 44 43 39 36 36 36 34 32 31 30
21 22 22 22 22 23 24 25 28 33 38 42 45 46 48 49 50 50 49 50 50 51 52 53 53 54 54 54 54 53 53 53 53 52 52 51 50 50 50 49 48 46 44 42 42 43 44 44 44 44 44 44 44 44 42 39 37 37 37 35 33 31 30
20 21 23 23 24 26 25 24 25 29 33 38 41 43 46 47 48 48 48 49 49 50 52 52 53 53 53 53 53 53 52 52 52 52 51 50 50 50 50 50 49 48 46 45 44 45 45 44 44 45 45 44 44 44 43 40 39 39 38 35 32 30 29
20 21 23 23 23 25 24 22 22 24 27 31 36 40 43 45 46 48 48 49 49 50 51 51 51 52 51 52 52 52 52 52 52 51 50 49 50 50 50 50 50 49 48 46 46 46 46 46 46 46 46 45 44 44 43 41 40 40 38 35 31 29 28
16 17 17 18 19 21 20 19 20 21 23 27 31 35 38 40 43 45 46 47 48 48 48 48 49 49 50 50 51 51 51 51 51 50 49 49 49 50 50 50 49 49 48 48 48 48 48 48 47 46 46 45 44 44 43 42 42 41 38 34 31 29 28
8 9 9 10 12 15 15 15 16 17 19 22 25 27 31 35 39 41 42 44 45 46 46 47 47 47 48 49 49 49 50 49 49 49 48 48 49 49 49 49 49 48 48 48 49 49 49 48 47 47 47 46 45 44 43 43 42 40 38 34 31 29 27
3 1 2 3 5 8 9 10 11 11 12 15 18 21 25 30 35 38 40 42 43 44 45 46 45 44 45 47 48 48 49 48 47 47 48 48 48 48 48 48 48 48 48 48 48 48 48 48 48 48 48 47 45 44 43 43 42 40 38 34 30 27 26
9 8 6 4 1 1 3 4 5 6 6 7 8 12 18 24 29 34 37 38 41 43 44 44 42 41 42 44 46 47 48 47 46 46 46 46 46 46 47 47 47 47 48 49 49 48 48 48 49 49 49 47 46 44 43 43 42 40 36 32 29 26 25
13 13 13 11 9 7 5 3 1 1 3 4 3 5 10 16 23 28 32 35 39 42 42 42 41 40 41 42 44 46 47 47 46 45 44 44 44 44 45 45 46 47 48 49 49 49 48 48 49 49 49 48 46 45 44 43 41 38 34 31 28 26 26
14 14 15 15 14 13 12 10 8 5 0 3 4 5 7 11 17 22 28 33 37 38 39 40 41 41 40 42 44 45 46 47 46 45 45 45 46 46 45 44 45 46 47 48 49 49 49 49 48 48 48 48 47 46 44 42 40 37 33 30 28 26 26
13 13 13 14 15 15 15 14 14 12 8 4 2 4 6 8 12 16 22 28 30 32 34 37 38 38 39 41 43 44 45 47 46 46 46 47 48 48 47 45 45 46 47 48 49 50 50 49 49 49 48 48 47 46 45 43 40 36 32 29 28 26 26
14 13 13 13 14 14 14 14 15 15 13 10 7 4 4 5 8 11 16 20 22 25 28 30 32 35 37 39 41 42 44 46 46 47 47 48 48 48 48 48 48 47 48 49 49 50 50 50 50 49 49 48 47 46 46 44 41 36 32 30 29 28 28
14 14 13 12 11 11 12 12 12 12 12 11 10 7 5 4 6 9 12 15 17 19 22 25 28 31 33 36 38 40 42 44 46 47 48 49 49 49 49 50 50 50 51 52 51 52 52 52 52 52 51 50 47 46 46 44 40 36 32 31 30 29 28
14 13 11 10 10 10 10 10 9 8 8 9 8 7 5 3 3 5 8 11 12 14 17 21 25 28 30 33 35 37 39 41 44 46 47 49 50 50 51 51 51 52 53 53 54 54 54 54 55 54 53 51 49 48 45 42 38 35 33 32 32 31 29
14 12 10 9 9 9 8 8 7 7 7 6 5 4 4 3 2 1 3 6 7 9 12 16 20 23 25 28 30 33 35 38 41 43 46 48 49 51 52 52 52 53 54 55 55 54 53 54 55 55 55 55 52 48 43 40 38 36 34 34 33 31 30
15 14 12 11 10 9 8 8 8 8 7 7 5 5 4 4 4 5 5 6 7 7 9 11 15 17 19 20 23 26 30 33 36 39 43 46 48 50 52 53 54 55 56 57 57 56 55 54 55 55 56 55 53 49 43 40 39 36 35 36 36 36 34
15 14 14 13 12 11 10 9 9 8 8 7 7 7 7 7 8 8 8 9 10 10 10 10 12 15 16 17 19 22 26 29 32 35 39 42 46 49 51 53 55 56 58 59 59 59 58 57 56 56 53 49 49 48 44 39 37 36 36 38 38 36 35
16 16 15 15 14 13 12 12 12 10 8 7 6 7 7 8 9 9 10 10 11 12 12 12 12 13 14 15 17 20 23 27 30 34 37 40 43 47 50 53 54 56 57 59 60 60 61 60 59 60 57 52 48 43 36 33 34 35 36 37 37 35 32
18 18 17 16 15 15 15 14 13 12 11 9 7 5 5 6 6 6 8 9 10 11 13 13 14 14 13 13 14 16 19 23 27 31 34 37 39 41 44 49 54 57 57 59 60 62 63 62 62 63 62 55 47 39 34 33 34 34 35 38 39 35 30
18 18 17 17 17 16 16 15 14 14 13 12 10 8 7 7 7 8 8 7 7 8 9 11 12 13 13 14 14 15 16 19 23 27 30 33 35 35 36 40 48 55 58 59 60 61 63 65 64 64 61 51 40 38 43 43 38 36 38 39 36 30 26
Wind_Direction
213 213 214 216 217 219 220 221 220 220 221 221 221 222 223 222 222 223 224 226 227 228 229 229 230 230 230 230 230 231 232 233 232 233 234 234 234 234 234 234 235 237 238 240 241 243 244 245 242 237 235 238 242 244 248 250 248 246 246 247 246 240 235
211 214 214 215 217 219 221 222 221 221 221 221 222 221 222 223 223 224 225 227 228 229 230 230 231 231 231 232 232 232 232 232 232 233 234 235 236 236 236 236 235 235 237 239 240 242 244 245 243 238 236 240 243 245 248 248 244 242 243 244 243 238 232
212 214 214 214 217 219 221 221 221 221 221 222 221 221 222 224 225 226 226 227 228 230 230 231 232 232 232 233 233 233 233 233 233 232 233 235 236 237 237 238 237 236 237 238 239 242 243 244 242 238 238 241 244 246 248 245 241 240 241 242 243 240 234
216 216 216 216 217 219 220 220 221 222 222 222 222 222 223 225 227 227 227 228 229 229 230 231 233 233 233 233 233 234 234 234 234 234 234 236 237 238 239 239 239 238 237 237 238 240 242 243 241 238 239 242 244 247 247 243 240 240 241 242 242 241 237
221 220 219 218 217 218 219 220 221 222 222 223 223 223 225 226 226 225 227 228 229 231 232 232 233 233 234 234 234 235 236 236 236 236 236 237 237 238 239 240 240 239 238 237 237 238 240 241 240 239 239 241 244 246 246 243 239 240 242 243 243 242 238
223 222 221 218 217 218 219 220 221 222 223 224 223 223 224 224 223 223 225 227 228 231 232 232 233 234 234 235 235 235 236 236 236 236 237 237 237 238 239 240 241 240 239 238 237 237 238 239 239 239 239 241 243 245 245 244 241 240 241 243 244 244 241
224 224 223 221 219 219 219 220 221 222 223 224 224 223 223 222 222 223 224 225 227 229 230 232 233 234 234 235 235 235 235 236 236 237 237 238 238 239 240 241 242 241 240 239 238 237 237 237 237 238 239 240 242 244 244 245 243 241 241 242 242 242 242
225 226 225 224 223 221 219 219 221 221 222 223 222 222 221 221 221 222 222 224 227 228 229 232 233 234 234 234 235 236 236 237 237 237 237 238 239 239 240 241 242 242 241 240 238 237 236 236 236 237 239 240 241 242 243 245 244 243 242 242 242 241 242
227 228 229 228 226 222 220 219 221 221 221 221 221 221 220 220 221 222 223 224 225 226 230 232 233 234 234 234 235 236 236 237 237 237 237 237 238 239 240 241 242 242 242 241 239 237 236 235 235 236 238 239 241 241 242 244 244 243 242 242 242 241 241
229 231 232 232 229 225 221 220 221 221 220 220 220 220 219 219 221 222 223 223 224 227 231 232 231 232 232 233 235 235 235 236 236 236 236 237 238 239 240 241 241 242 242 242 241 238 236 235 235 235 237 239 240 241 241 242 243 242 241 242 242 242 242
232 233 234 234 232 228 222 219 220 221 221 220 220 220 219 219 221 222 223 222 224 228 230 230 230 230 230 232 233 234 235 235 236 236 236 237 238 238 240 240 241 242 243 242 241 239 236 235 235 235 236 238 239 240 241 242 243 243 242 242 242 243 243
237 235 235 235 232 230 225 220 220 222 222 221 221 220 220 220 220 222 223 224 225 228 228 228 229 229 230 231 231 233 235 235 236 236 236 237 238 238 239 240 240 242 243 243 242 241 237 235 235 235 236 238 239 239 240 242 243 244 244 244 244 244 245
240 237 237 237 232 229 226 222 221 223 224 223 222 222 221 221 221 221 223 224 226 226 227 227 228 228 229 230 231 232 234 235 236 236 236 237 238 238 238 238 239 241 242 243 242 241 238 235 234 235 236 238 239 239 240 241 242 243 244 246 246 246 246
249 244 242 239 233 230 226 223 222 223 224 224 223 223 223 222 223 223 223 225 226 225 225 227 227 227 228 229 230 232 234 235 236 236 236 237 238 238 238 237 237 238 240 242 241 240 237 235 234 234 236 238 239 239 240 241 241 242 243 245 246 247 248
260 253 247 241 237 232 229 228 226 224 225 225 224 223 223 223 223 223 224 225 225 225 226 226 226 227 228 228 230 233 235 235 234 234 235 236 236 236 236 235 235 236 238 239 240 239 237 235 234 234 235 237 238 239 240 240 240 240 241 243 245 247 249
267 262 254 248 244 238 233 232 231 228 226 225 224 223 223 223 224 224 225 226 225 226 227 226 225 226 227 229 232 234 235 233 233 233 233 234 235 235 236 235 233 233 235 237 239 238 236 235 234 233 234 236 238 239 239 240 240 239 240 242 244 247 250
271 268 261 256 253 245 238 235 234 230 226 224 226 226 225 225 226 226 226 225 225 227 227 225 225 226 227 230 233 234 233 232 232 231 232 233 234 234 235 234 233 233 233 235 236 236 236 234 233 233 234 235 237 239 240 240 239 239 240 242 244 247 249
266 269 270 267 263 255 246 239 234 232 230 228 228 228 228 228 227 225 226 226 227 227 225 224 225 227 230 232 232 231 231 231 231 230 231 232 232 233 234 234 233 232 232 233 234 235 235 234 233 233 234 235 237 238 240 240 239 239 241 242 243 246 249
263 268 272 272 272 267 259 251 241 237 236 233 229 229 231 230 228 228 230 231 230 226 223 224 226 228 231 231 229 229 230 230 230 230 231 231 231 232 232 233 233 233 232 233 234 234 235 234 233 234 234 235 236 238 239 240 239 240 241 242 244 246 248
263 268 270 272 276 274 270 262 251 243 240 237 235 234 233 231 231 234 234 231 228 225 224 226 228 229 231 231 229 229 230 230 230 231 231 230 230 230 231 233 233 233 233 233 235 235 236 235 235 235 235 235 236 238 239 240 240 241 242 243 244 245 248
260 266 268 269 272 274 274 271 260 251 244 241 240 237 233 231 231 232 231 228 227 227 227 227 228 230 230 230 229 228 228 229 230 230 230 229 229 230 231 233 234 234 234 234 235 237 238 237 237 237 236 236 237 238 239 239 240 242 243 244 244 245 248
254 259 262 264 266 270 274 273 265 256 250 245 242 238 235 234 232 229 228 228 228 228 227 226 226 228 228 229 229 229 228 229 229 228 228 228 228 229 230 232 234 234 235 235 236 238 239 239 239 239 238 238 238 239 239 239 240 242 243 244 244 245 247
249 254 258 261 264 268 270 267 260 254 249 245 241 239 237 235 232 229 227 226 226 226 225 224 225 228 229 230 231 231 229 228 227 227 227 227 228 230 232 233 235 235 235 236 236 237 238 239 240 240 240 240 240 240 240 240 241 243 244 244 244 244 245
238 249 258 258 258 263 265 261 255 249 246 244 243 242 241 236 233 230 227 225 225 225 225 226 229 231 233 233 234 233 231 228 228 229 230 231 232 234 234 235 236 236 237 237 237 238 239 240 241 241 241 241 241 241 241 242 242 243 244 244 244 243 244
144 165 262 253 245 252 254 252 250 246 245 247 248 246 243 238 234 231 229 228 227 227 228 231 234 235 237 237 236 234 232 230 231 232 232 234 236 236 237 237 238 237 237 238 239 240 240 240 241 241 242 243 243 242 243 244 244 244 244 244 243 242 242
98 90 77 72 73 275 260 250 250 248 249 257 258 249 244 239 235 232 231 231 229 229 232 236 238 239 240 239 236 234 234 233 234 235 235 236 237 237 238 238 238 238 238 238 238 239 239 240 241 241 243 244 244 244 244 244 244 244 244 243 240 239 239
92 83 76 73 72 66 58 52 39 285 267 267 258 244 242 240 235 233 232 230 229 232 237 239 239 239 239 238 236 236 236 236 236 237 238 239 238 237 238 239 239 239 239 238 238 237 237 239 240 241 243 244 244 245 244 244 244 243 241 238 235 234 234
100 90 80 76 75 74 72 70 69 67 0 246 239 232 232 239 239 236 233 231 234 239 241 239 238 238 237 236 236 236 237 237 238 238 239 238 236 234 235 237 238 238 239 238 238 237 237 238 239 240 241 243 244 244 244 244 243 241 237 232 229 228 230
98 89 80 73 69 68 68 71 74 75 79 94 192 216 211 224 236 238 238 240 244 247 245 242 242 242 240 239 238 238 238 239 239 239 238 236 235 234 235 235 235 236 237 237 236 235 235 235 236 237 239 240 241 242 242 242 240 236 230 226 224 223 226
79 77 73 66 63 62 61 65 69 71 77 84 91 119 164 193 213 229 241 248 253 253 251 250 249 246 244 243 243 242 242 240 240 239 238 237 236 235 236 235 235 235 235 235 235 234 234 234 234 234 234 236 239 240 240 239 238 234 227 222 220 220 223
68 68 66 62 62 59 57 58 59 60 67 73 78 91 112 144 178 206 227 239 244 247 249 252 251 249 248 248 247 246 244 243 241 240 239 239 237 236 236 236 235 233 232 232 232 233 233 234 232 231 231 233 236 237 237 236 235 232 226 222 221 222 222
61 59 58 58 53 45 47 52 51 51 55 56 59 66 68 83 145 189 211 224 232 235 237 242 246 249 250 251 250 250 248 245 244 243 241 240 239 239 239 237 236 236 234 231 229 229 230 229 228 227 228 231 233 233 232 232 231 228 223 222 223 221 215
60 54 49 45 37 28 26 28 29 34 39 38 39 39 27 15 358 313 250 243 245 238 235 237 241 246 250 252 254 255 252 250 250 248 245 243 241 240 239 237 236 236 234 232 229 227 226 225 224 224 225 227 229 229 228 227 225 221 219 220 218 210 203
63 59 53 48 40 29 18 10 10 10 6 3 359 348 332 316 311 310 302 296 288 272 257 247 244 247 251 253 256 258 257 257 256 253 250 248 244 242 240 237 235 233 233 234 233 230 227 226 225 224 224 223 223 224 223 222 221 218 216 216 210 201 197
65 62 58 53 45 40 35 29 23 15 3 353 344 330 318 305 296 290 286 289 289 287 282 270 257 253 251 251 253 255 256 258 258 256 256 254 250 247 245 242 239 237 237 239 239 237 236 235 231 226 221 217 219 220 217 215 217 217 216 212 207 204 203
65 63 58 52 44 40 37 35 35 35 30 13 352 331 314 302 292 284 280 280 280 284 288 286 279 272 262 255 252 253 255 256 255 253 253 252 251 250 248 245 242 241 241 242 241 240 239 238 236 232 226 219 220 222 219 214 216 216 211 206 205 206 209
64 61 58 53 49 44 39 34 31 32 32 28 20 1 330 311 301 300 302 299 294 293 292 290 290 289 284 275 265 258 257 258 257 254 250 247 247 247 246 245 243 241 241 241 240 239 237 235 235 236 233 226 222 218 210 208 213 213 207 202 201 202 205
65 63 60 57 54 51 47 40 33 27 22 21 23 20 5 356 0 3 357 343 324 314 309 306 304 301 299 298 292 282 273 266 262 260 257 253 250 247 246 248 246 244 241 238 236 236 236 233 231 230 228 226 224 212 199 197 202 205 201 198 198 198 198
Height
1437 1441 1443 1446 1449 1451 1453 1454 1458 1461 1464 1467 1470 1472 1476 1478 1481 1482 1484 1486 1488 1491 1494 1496 1499 1501 1504 1506 1510 1513 1515 1518 1520 1523 1525 1527 1529 1532 1534 1536 1539 1541 1543 1545 1547 1549 1551 1553 1555 1556 1557 1559 1560 1561 1562 1563 1564 1565 1565 1566 1566 1567 1567
1434 1436 1437 1441 1444 1445 1447 1450 1454 1457 1460 1462 1465 1468 1471 1474 1476 1478 1480 1482 1484 1487 1490 1492 1495 1497 1499 1503 1506 1508 1511 1514 1517 1519 1522 1524 1526 1529 1531 1534 1536 1538 1541 1543 1545 1547 1549 1551 1553 1554 1556 1557 1558 1560 1561 1561 1562 1563 1564 1564 1565 1565 1566
1428 1429 1431 1434 1436 1438 1441 1445 1449 1452 1455 1458 1461 1464 1466 1469 1471 1473 1476 1478 1481 1484 1486 1489 1491 1493 1496 1499 1502 1504 1507 1510 1513 1515 1518 1520 1523 1525 1528 1531 1533 1536 1538 1541 1543 1545 1547 1549 1551 1552 1554 1555 1557 1558 1559 1560 1560 1561 1562 1562 1563 1564 1564
1421 1422 1424 1427 1429 1432 1436 1440 1444 1446 1449 1452 1455 1458 1460 1463 1466 1469 1473 1475 1477 1480 1482 1485 1487 1490 1493 1495 1498 1501 1503 1506 1509 1512 1515 1517 1520 1523 1525 1527 1530 1532 1535 1537 1540 1542 1544 1546 1548 1550 1552 1553 1554 1556 1557 1558 1559 1559 1560 1560 1561 1562 1563
1417 1418 1420 1423 1426 1429 1432 1435 1438 1440 1444 1447 1450 1453 1456 1459 1463 1466 1469 1472 1474 1477 1479 1481 1484 1486 1489 1491 1494 1497 1500 1503 1506 1508 1512 1514 1517 1520 1522 1524 1526 1529 1531 1534 1537 1539 1541 1543 1545 1547 1549 1550 1552 1553 1555 1556 1557 1557 1558 1558 1559 1560 1561
1411 1413 1415 1417 1420 1423 1425 1428 1431 1434 1438 1441 1445 1448 1451 1455 1459 1462 1465 1468 1471 1474 1476 1479 1482 1483 1486 1488 1490 1493 1496 1500 1502 1505 1508 1511 1514 1516 1518 1521 1523 1526 1528 1531 1534 1536 1538 1540 1543 1545 1546 1548 1549 1551 1552 1553 1554 1555 1556 1557 1557 1558 1559
1405 1406 1408 1410 1413 1415 1418 1422 1425 1429 1433 1436 1440 1444 1448 1452 1455 1457 1461 1464 1467 1470 1473 1475 1477 1479 1482 1485 1487 1490 1493 1496 1499 1502 1505 1508 1510 1512 1515 1518 1520 1522 1525 1528 1530 1533 1535 1537 1540 1542 1543 1545 1546 1548 1549 1550 1552 1553 1554 1554 1555 1556 1556
1399 1400 1402 1404 1405 1408 1412 1416 1421 1424 1429 1433 1437 1441 1444 1448 1451 1454 1457 1459 1462 1465 1468 1470 1472 1475 1478 1481 1484 1486 1489 1493 1496 1499 1502 1504 1506 1508 1511 1514 1517 1519 1522 1524 1527 1529 1532 1534 1537 1539 1540 1542 1543 1544 1546 1547 1549 1550 1551 1552 1553 1554 1554
1395 1396 1397 1399 1401 1405 1409 1412 1416 1420 1424 1429 1432 1436 1439 1443 1446 1449 1451 1454 1458 1460 1462 1464 1468 1471 1474 1477 1480 1483 1486 1489 1491 1494 1497 1499 1502 1504 1507 1511 1514 1516 1518 1521 1523 1526 1529 1531 1533 1535 1537 1538 1540 1541 1542 1544 1545 1547 1548 1549 1550 1551 1552
1394 1395 1396 1398 1401 1404 1407 1411 1415 1418 1422 1425 1427 1431 1435 1438 1441 1443 1446 1450 1453 1455 1457 1460 1464 1467 1470 1473 1476 1479 1483 1485 1487 1490 1492 1495 1497 1500 1504 1508 1511 1513 1515 1517 1520 1522 1525 1528 1530 1532 1533 1535 1536 1537 1538 1540 1541 1543 1545 1546 1547 1548 1549
1392 1394 1395 1397 1400 1402 1406 1409 1412 1415 1417 1419 1422 1426 1429 1432 1435 1438 1441 1444 1447 1449 1452 1456 1460 1463 1466 1469 1472 1475 1478 1480 1483 1485 1487 1490 1493 1497 1501 1505 1508 1510 1511 1514 1516 1519 1521 1524 1526 1528 1529 1530 1531 1533 1534 1535 1537 1539 1541 1543 1544 1545 1546
1390 1391 1392 1394 1396 1399 1401 1404 1407 1410 1412 1414 1417 1420 1424 1427 1430 1433 1436 1439 1441 1444 1448 1452 1456 1459 1461 1465 1467 1470 1472 1475 1477 1479 1482 1486 1489 1493 1497 1501 1504 1506 1508 1510 1512 1515 1517 1520 1521 1523 1525 1526 1527 1529 1530 1531 1533 1535 1537 1539 1540 1542 1543
1387 1388 1389 1390 1392 1394 1397 1399 1403 1405 1407 1410 1412 1415 1418 1421 1425 1428 1431 1434 1437 1440 1444 1448 1451 1454 1457 1460 1462 1465 1467 1469 1472 1475 1478 1482 1485 1489 1493 1496 1500 1501 1503 1506 1508 1511 1513 1515 1517 1519 1520 1522 1523 1524 1526 1527 1529 1531 1533 1535 1536 1538 1540
1385 1386 1387 1388 1389 1391 1393 1395 1397 1400 1403 1405 1408 1411 1414 1417 1420 1423 1426 1429 1432 1436 1440 1443 1446 1449 1452 1455 1457 1459 1461 1464 1468 1471 1475 1478 1481 1484 1487 1491 1495 1497 1499 1502 1503 1506 1508 1510 1512 1514 1516 1517 1518 1520 1521 1522 1524 1526 1528 1530 1532 1534 1535
1383 1383 1384 1385 1386 1387 1388 1390 1392 1395 1397 1400 1404 1407 1410 1413 1416 1419 1423 1425 1429 1432 1434 1438 1441 1444 1447 1449 1451 1453 1456 1460 1463 1467 1471 1474 1476 1479 1482 1486 1490 1492 1495 1496 1498 1501 1503 1505 1507 1508 1510 1511 1513 1515 1516 1517 1519 1521 1523 1525 1527 1529 1531
1380 1381 1382 1382 1383 1383 1385 1386 1387 1389 1392 1395 1399 1402 1406 1409 1411 1414 1417 1420 1423 1426 1429 1433 1436 1438 1441 1443 1444 1447 1452 1455 1459 1462 1466 1469 1471 1474 1477 1481 1485 1488 1490 1491 1493 1495 1497 1499 1501 1502 1504 1506 1508 1510 1511 1512 1515 1517 1519 1521 1523 1525 1526
1378 1378 1379 1379 1380 1380 1382 1383 1385 1386 1389 1392 1394 1397 1400 1403 1406 1409 1412 1415 1418 1421 1424 1428 1430 1433 1435 1437 1439 1444 1448 1451 1454 1457 1460 1463 1466 1469 1473 1477 1480 1483 1485 1486 1488 1489 1491 1493 1494 1495 1497 1500 1502 1504 1505 1508 1510 1512 1514 1516 1518 1520 1522
1376 1376 1376 1376 1377 1377 1379 1380 1382 1383 1385 1386 1389 1392 1394 1397 1401 1404 1407 1410 1413 1416 1420 1424 1426 1428 1430 1431 1436 1440 1443 1446 1449 1452 1455 1458 1462 1465 1468 1472 1475 1477 1479 1480 1482 1483 1485 1486 1488 1489 1492 1495 1497 1499 1500 1503 1506 1508 1510 1512 1514 1516 1518
1374 1374 1374 1374 1374 1375 1376 1376 1378 1379 1380 1382 1385 1387 1389 1392 1396 1398 1401 1404 1407 1412 1416 1419 1421 1423 1425 1428 1432 1436 1438 1442 1445 1447 1450 1453 1457 1461 1464 1467 1469 1471 1473 1475 1476 1478 1479 1480 1482 1485 1487 1489 1491 1493 1495 1499 1502 1504 1505 1507 1509 1512 1514
1372 1372 1371 1371 1372 1372 1372 1373 1374 1376 1378 1380 1382 1384 1387 1390 1392 1394 1397 1401 1405 1408 1411 1413 1416 1418 1420 1423 1427 1430 1434 1437 1439 1442 1445 1449 1453 1456 1459 1461 1463 1466 1468 1470 1472 1473 1473 1475 1478 1480 1482 1484 1486 1488 1491 1494 1497 1498 1500 1503 1505 1508 1509
1370 1370 1369 1369 1369 1369 1369 1370 1371 1373 1375 1377 1379 1381 1384 1387 1389 1393 1396 1399 1402 1404 1405 1408 1410 1413 1416 1419 1422 1425 1429 1432 1434 1437 1441 1445 1448 1451 1453 1456 1458 1461 1463 1465 1466 1468 1469 1471 1473 1475 1477 1479 1482 1484 1486 1489 1492 1493 1496 1499 1501 1504 1506
1368 1368 1367 1366 1367 1366 1366 1367 1368 1369 1371 1374 1377 1379 1381 1384 1387 1390 1393 1395 1398 1400 1402 1405 1407 1410 1413 1415 1418 1421 1424 1427 1430 1434 1437 1441 1444 1446 1448 1451 1453 1455 1458 1460 1462 1463 1465 1467 1469 1470 1472 1475 1478 1480 1482 1484 1486 1489 1491 1495 1498 1500 1502
1366 1366 1365 1365 1364 1364 1364 1365 1365 1366 1369 1371 1374 1377 1379 1383 1386 1388 1390 1392 1395 1397 1400 1403 1405 1407 1410 1412 1414 1417 1420 1423 1427 1430 1434 1437 1439 1441 1443 1446 1448 1451 1453 1455 1457 1458 1460 1462 1464 1466 1469 1471 1473 1475 1477 1479 1481 1484 1487 1491 1494 1496 1498
1365 1365 1364 1363 1363 1362 1362 1362 1363 1364 1366 1368 1371 1374 1377 1380 1383 1386 1388 1390 1392 1395 1397 1399 1400 1403 1406 1408 1411 1414 1417 1420 1424 1427 1430 1432 1433 1435 1438 1440 1443 1445 1448 1450 1452 1454 1456 1458 1461 1462 1464 1466 1468 1470 1472 1474 1477 1480 1483 1487 1490 1492 1494
1364 1364 1363 1362 1362 1361 1361 1361 1362 1363 1365 1367 1369 1372 1375 1377 1380 1382 1385 1387 1390 1392 1393 1394 1395 1398 1401 1404 1408 1411 1414 1417 1420 1422 1424 1425 1427 1430 1433 1435 1438 1441 1444 1446 1447 1450 1452 1455 1457 1458 1459 1461 1464 1466 1468 1470 1472 1476 1479 1483 1486 1488 1490
1364 1363 1362 1361 1360 1360 1360 1360 1361 1362 1364 1365 1368 1370 1373 1375 1378 1380 1382 1384 1387 1389 1389 1390 1392 1395 1398 1401 1405 1408 1410 1413 1415 1417 1419 1420 1422 1425 1429 1432 1435 1437 1440 1441 1443 1446 1448 1450 1452 1453 1454 1457 1460 1462 1464 1465 1468 1471 1475 1479 1482 1484 1486
1363 1363 1362 1361 1360 1359 1360 1359 1360 1361 1362 1364 1366 1368 1371 1373 1375 1377 1379 1382 1383 1384 1385 1388 1390 1394 1397 1399 1402 1404 1405 1408 1411 1412 1414 1415 1417 1420 1424 1427 1430 1432 1435 1437 1440 1442 1443 1445 1446 1448 1450 1452 1454 1457 1459 1461 1463 1466 1470 1474 1477 1479 1481
1362 1362 1362 1362 1361 1360 1360 1359 1359 1360 1362 1363 1365 1367 1370 1372 1374 1376 1378 1379 1379 1380 1383 1387 1390 1393 1395 1397 1399 1401 1403 1405 1407 1408 1410 1412 1414 1415 1417 1420 1424 1427 1430 1432 1435 1436 1438 1439 1441 1443 1444 1447 1449 1451 1453 1455 1458 1462 1465 1469 1471 1474 1477
1360 1360 1360 1361 1360 1359 1359 1360 1360 1361 1362 1364 1365 1367 1368 1370 1372 1375 1377 1377 1378 1381 1384 1387 1389 1391 1393 1395 1396 1398 1399 1401 1403 1405 1407 1409 1411 1412 1413 1415 1417 1420 1423 1426 1428 1430 1432 1434 1436 1437 1439 1441 1442 1445 1447 1450 1453 1456 1460 1463 1466 1469 1471
1359 1359 1359 1360 1360 1360 1361 1361 1361 1363 1364 1365 1366 1367 1368 1370 1371 1374 1376 1377 1379 1382 1384 1385 1387 1389 1391 1392 1394 1395 1396 1398 1400 1402 1403 1404 1406 1408 1410 1411 1411 1412 1414 1417 1420 1423 1425 1428 1430 1432 1432 1434 1436 1439 1441 1444 1448 1452 1456 1458 1461 1464 1466
1359 1359 1359 1360 1361 1362 1363 1363 1363 1364 1365 1366 1367 1368 1368 1370 1371 1373 1374 1376 1378 1380 1381 1383 1385 1386 1387 1389 1390 1392 1394 1395 1397 1398 1399 1400 1402 1403 1404 1406 1407 1408 1408 1409 1410 1412 1414 1417 1421 1423 1425 1427 1429 1432 1435 1440 1444 1449 1452 1455 1458 1460 1462
1358 1359 1359 1360 1361 1362 1363 1364 1365 1366 1366 1367 1368 1368 1369 1370 1371 1372 1373 1374 1375 1377 1378 1380 1382 1383 1384 1386 1387 1389 1391 1392 1393 1394 1396 1397 1397 1398 1399 1400 1402 1404 1405 1406 1406 1405 1405 1406 1409 1413 1417 1420 1421 1424 1429 1435 1440 1444 1448 1451 1455 1457 1459
1357 1358 1358 1359 1360 1361 1362 1363 1365 1365 1366 1367 1368 1368 1369 1370 1370 1372 1372 1373 1374 1374 1376 1377 1379 1381 1382 1383 1385 1386 1387 1388 1389 1390 1391 1392 1393 1393 1394 1396 1397 1398 1399 1401 1402 1403 1404 1404 1403 1404 1406 1409 1413 1418 1423 1428 1433 1438 1443 1447 1450 1453 1456
1358 1359 1359 1360 1360 1361 1362 1362 1363 1363 1364 1365 1366 1367 1368 1369 1369 1370 1370 1371 1372 1373 1374 1376 1377 1378 1379 1381 1382 1383 1384 1384 1385 1386 1387 1387 1388 1389 1389 1390 1391 1392 1392 1393 1394 1396 1399 1400 1401 1401 1401 1402 1407 1412 1417 1423 1429 1434 1438 1441 1445 1448 1451
1360 1361 1361 1361 1362 1362 1362 1363 1363 1363 1364 1364 1365 1365 1366 1366 1367 1368 1368 1369 1370 1371 1373 1374 1375 1376 1377 1378 1379 1379 1380 1381 1382 1382 1383 1383 1383 1384 1384 1385 1385 1386 1386 1386 1387 1388 1390 1392 1395 1398 1400 1404 1407 1409 1413 1420 1425 1430 1434 1437 1441 1444 1446
1362 1362 1362 1362 1362 1363 1363 1364 1364 1365 1365 1365 1365 1365 1365 1365 1366 1367 1367 1368 1369 1370 1371 1372 1373 1374 1375 1375 1376 1377 1378 1378 1379 1380 1380 1381 1381 1381 1380 1380 1380 1380 1380 1380 1380 1381 1383 1384 1386 1387 1389 1396 1404 1410 1414 1418 1421 1424 1429 1434 1438 1441 1444
1364 1363 1363 1363 1363 1363 1364 1364 1365 1366 1366 1366 1366 1366 1366 1366 1366 1367 1367 1368 1368 1369 1370 1370 1371 1371 1372 1373 1373 1374 1375 1375 1376 1376 1377 1377 1378 1379 1379 1378 1377 1375 1375 1375 1374 1374 1374 1376 1378 1378 1379 1385 1395 1403 1408 1413 1416 1420 1424 1429 1433 1437 1440
1365 1364 1364 1364 1364 1365 1365 1365 1366 1366 1365 1366 1366 1366 1366 1366 1367 1367 1367 1367 1367 1368 1368 1369 1369 1370 1370 1370 1370 1371 1372 1372 1373 1373 1374 1374 1375 1376 1376 1376 1375 1373 1371 1371 1370 1369 1368 1368 1371 1373 1376 1384 1392 1396 1398 1401 1406 1412 1418 1424 1429 1433 1437